Marion, SC

12:43 AM EDT on October 21, 2017 (GMT -0400)
Marion County

Weather History for KMAO - April, 2014

Change the Weather History Date:

Friday, April 11, 2014

  Actual Average (KFLO) Record (KFLO)
Temperature  
Mean Temperature 64 °F -  
Max Temperature 77 °F 74 °F 92 °F (2001)
Min Temperature 51 °F 47 °F 32 °F (1996)
Degree Days  
Heating Degree Days 1    
Growing Degree Days 14 (Base 50)    
Moisture  
Dew Point 45 °F    
Average Humidity 52    
Maximum Humidity 82    
Minimum Humidity 29    
Precipitation  
Precipitation 0.00 in - - ()
Sea Level Pressure  
Sea Level Pressure 30.21 in    
Wind  
Wind Speed 8 mph (SSW)    
Max Wind Speed 17 mph    
Max Gust Speed 26 mph    
Visibility 10 miles    
Events      
Averages and records for this station are not official NWS values.
T = Trace of Precipitation, MM = Missing Value Source: NWS Daily Summary

Daily Weather History Graph

Daily Weather History Graph

Search for Another Location

Airport or City:

Trip Planner

Search our weather history database for the weather conditions in past years. The results will help you decide how hot, cold, wet, or windy it might be!

Date:

Astronomy

Apr. 11, 2014 Rise Set
Actual Time 6:51 AM EDT 7:45 PM EDT
Civil Twilight 6:25 AM EDT 8:11 PM EDT
Nautical Twilight 5:55 AM EDT 8:41 PM EDT
Astronomical Twilight 5:24 AM EDT 9:13 PM EDT
Moon 4:33 PM EDT (4/11) 4:36 AM EDT (4/11)
Length of Visible Light 13h 45m
Length of Day
12h 54m
Waxing Gibbous, 87% of the Moon is Illuminated
Apr 11
Waxing Gibbous
Apr 15
Full
Apr 22
Last Quarter
Apr 29
New
May 6
First Quarter

Hourly Weather History & Observations

Time (EDT) Temp. Dew Point Humidity Pressure Visibility Wind Dir Wind Speed Gust Speed Precip Events Conditions
12:15 AM 59.0 °F 39.2 °F 48% 30.25 in 10.0 mi South 6.9 mph - N/A   Clear
12:35 AM 57.2 °F 39.2 °F 51% 30.25 in 10.0 mi South 5.8 mph - N/A   Clear
12:55 AM 57.2 °F 41.0 °F 55% 30.25 in 10.0 mi South 5.8 mph - N/A   Clear
1:15 AM 55.4 °F 41.0 °F 58% 30.24 in 10.0 mi South 6.9 mph - N/A   Clear
1:35 AM 55.4 °F 41.0 °F 58% 30.24 in 10.0 mi South 6.9 mph - N/A   Clear
1:55 AM 53.6 °F 41.0 °F 62% 30.24 in 10.0 mi South 5.8 mph - N/A   Clear
2:15 AM 53.6 °F 41.0 °F 62% 30.24 in 10.0 mi South 5.8 mph - N/A   Clear
2:35 AM 53.6 °F 41.0 °F 62% 30.23 in 10.0 mi South 5.8 mph - N/A   Clear
2:55 AM 53.6 °F 42.8 °F 67% 30.23 in 10.0 mi South 5.8 mph - N/A   Clear
3:15 AM 53.6 °F 42.8 °F 67% 30.23 in 10.0 mi SSW 4.6 mph - N/A   Clear
3:35 AM 51.8 °F 42.8 °F 71% 30.23 in 10.0 mi South 4.6 mph - N/A   Clear
4:15 AM 51.8 °F 44.6 °F 76% 30.23 in 10.0 mi South 4.6 mph - N/A   Clear
4:35 AM 51.8 °F 44.6 °F 76% 30.23 in 10.0 mi South 5.8 mph - N/A   Clear
4:55 AM 51.8 °F 44.6 °F 76% 30.23 in 10.0 mi South 4.6 mph - N/A   Clear
5:15 AM 51.8 °F 44.6 °F 76% 30.23 in 10.0 mi South 4.6 mph - N/A   Clear
5:35 AM 51.8 °F 44.6 °F 76% 30.24 in 10.0 mi SSW 4.6 mph - N/A   Clear
5:55 AM 51.8 °F 44.6 °F 76% 30.24 in 10.0 mi South 5.8 mph - N/A   Clear
6:15 AM 51.8 °F 44.6 °F 76% 30.25 in 10.0 mi South 5.8 mph - N/A   Clear
6:35 AM 51.8 °F 44.6 °F 76% 30.25 in 10.0 mi South 4.6 mph - N/A   Clear
6:55 AM 51.8 °F 46.4 °F 82% 30.26 in 10.0 mi SSW 4.6 mph - N/A   Clear
7:15 AM 51.8 °F 46.4 °F 82% 30.26 in 10.0 mi South 5.8 mph - N/A   Clear
7:35 AM 51.8 °F 46.4 °F 82% 30.26 in 10.0 mi South 5.8 mph - N/A   Clear
7:55 AM 55.4 °F 50.0 °F 82% 30.27 in 10.0 mi SSW 4.6 mph - N/A   Clear
8:15 AM 57.2 °F 50.0 °F 77% 30.27 in 10.0 mi SSW 6.9 mph - N/A   Clear
8:35 AM 59.0 °F 50.0 °F 72% 30.28 in 10.0 mi SSW 6.9 mph - N/A   Clear
8:55 AM 62.6 °F 51.8 °F 68% 30.28 in 10.0 mi SW 8.1 mph - N/A   Clear
9:15 AM 64.4 °F 51.8 °F 64% 30.28 in 10.0 mi SW 12.7 mph - N/A   Clear
9:35 AM 64.4 °F 50.0 °F 59% 30.28 in 10.0 mi SW 9.2 mph 17.3 mph N/A   Clear
10:15 AM 68.0 °F 50.0 °F 52% 30.29 in 10.0 mi SW 12.7 mph - N/A   Clear
10:35 AM 69.8 °F 46.4 °F 43% 30.29 in 10.0 mi WSW 11.5 mph 23.0 mph N/A   Clear
10:55 AM 71.6 °F 46.4 °F 41% 30.29 in 10.0 mi WSW 13.8 mph 19.6 mph N/A   Clear
11:15 AM 71.6 °F 46.4 °F 41% 30.28 in 10.0 mi SW 10.4 mph 16.1 mph N/A   Clear
11:35 AM 71.6 °F 46.4 °F 41% 30.28 in 10.0 mi SW 9.2 mph 18.4 mph N/A   Clear
11:55 AM 73.4 °F 44.6 °F 36% 30.27 in 10.0 mi WSW 12.7 mph 19.6 mph N/A   Clear
12:35 PM 73.4 °F 44.6 °F 36% 30.25 in 10.0 mi SSW 12.7 mph 18.4 mph N/A   Clear
12:55 PM 77.0 °F 42.8 °F 29% 30.24 in 10.0 mi SSW 11.5 mph 21.9 mph N/A   Clear
1:15 PM 77.0 °F 42.8 °F 29% 30.23 in 10.0 mi WSW 13.8 mph 24.2 mph N/A   Scattered Clouds
1:35 PM 77.0 °F 42.8 °F 29% 30.22 in 10.0 mi SW 17.3 mph 24.2 mph N/A   Clear
1:55 PM 77.0 °F 44.6 °F 32% 30.21 in 10.0 mi SW 12.7 mph 24.2 mph N/A   Clear
2:15 PM 77.0 °F 44.6 °F 32% 30.20 in 10.0 mi SSW 12.7 mph 21.9 mph N/A   Clear
2:35 PM 77.0 °F 44.6 °F 32% 30.19 in 10.0 mi SW 11.5 mph 23.0 mph N/A   Scattered Clouds
2:55 PM 77.0 °F 42.8 °F 29% 30.18 in 10.0 mi SSW 10.4 mph 18.4 mph N/A   Scattered Clouds
3:15 PM 77.0 °F 44.6 °F 32% 30.16 in 10.0 mi SSW 16.1 mph 20.7 mph N/A   Scattered Clouds
3:35 PM 77.0 °F 44.6 °F 32% 30.15 in 10.0 mi SW 15.0 mph 23.0 mph N/A   Scattered Clouds
4:15 PM 77.0 °F 46.4 °F 34% 30.14 in 10.0 mi SW 16.1 mph 26.5 mph N/A   Scattered Clouds
4:35 PM 77.0 °F 44.6 °F 32% 30.13 in 10.0 mi SSW 17.3 mph 21.9 mph N/A   Scattered Clouds
4:55 PM 77.0 °F 44.6 °F 32% 30.13 in 10.0 mi SW 12.7 mph 18.4 mph N/A   Scattered Clouds
5:15 PM 77.0 °F 44.6 °F 32% 30.13 in 10.0 mi SSW 10.4 mph 21.9 mph N/A   Scattered Clouds
5:35 PM 77.0 °F 44.6 °F 32% 30.13 in 10.0 mi SSW 15.0 mph 21.9 mph N/A   Mostly Cloudy
5:55 PM 77.0 °F 44.6 °F 32% 30.13 in 10.0 mi SW 16.1 mph 21.9 mph N/A   Scattered Clouds
6:15 PM 77.0 °F 44.6 °F 32% 30.13 in 10.0 mi SW 9.2 mph 18.4 mph N/A   Clear
6:35 PM 75.2 °F 44.6 °F 34% 30.12 in 10.0 mi SSW 12.7 mph 18.4 mph N/A   Clear
6:55 PM 73.4 °F 44.6 °F 36% 30.12 in 10.0 mi SSW 9.2 mph - N/A   Clear
7:15 PM 73.4 °F 44.6 °F 36% 30.12 in 10.0 mi SSW 9.2 mph - N/A   Clear
7:35 PM 73.4 °F 44.6 °F 36% 30.13 in 10.0 mi SSW 8.1 mph - N/A   Scattered Clouds
7:55 PM 71.6 °F 46.4 °F 41% 30.14 in 10.0 mi South 9.2 mph - N/A   Scattered Clouds
8:15 PM 71.6 °F 44.6 °F 38% 30.14 in 10.0 mi South 11.5 mph - N/A   Clear
8:35 PM 69.8 °F 44.6 °F 40% 30.15 in 10.0 mi South 13.8 mph 23.0 mph N/A   Clear
8:55 PM 69.8 °F 46.4 °F 43% 30.16 in 10.0 mi South 10.4 mph - N/A   Clear
9:15 PM 69.8 °F 46.4 °F 43% 30.16 in 10.0 mi South 13.8 mph 18.4 mph N/A   Clear
9:35 PM 68.0 °F 46.4 °F 46% 30.17 in 10.0 mi South 10.4 mph - N/A   Clear
9:55 PM 68.0 °F 46.4 °F 46% 30.18 in 10.0 mi South 8.1 mph - N/A   Clear
10:15 PM 66.2 °F 46.4 °F 49% 30.18 in 10.0 mi South 9.2 mph - N/A   Clear
10:35 PM 64.4 °F 48.2 °F 56% 30.18 in 10.0 mi South 9.2 mph - N/A   Clear
10:55 PM 64.4 °F 48.2 °F 56% 30.18 in 10.0 mi South 5.8 mph - N/A   Clear
11:15 PM 62.6 °F 48.2 °F 59% 30.18 in 10.0 mi South 5.8 mph - N/A   Clear
11:35 PM 62.6 °F 48.2 °F 59% 30.19 in 10.0 mi SSW 5.8 mph - N/A   Clear
11:55 PM 60.8 °F 48.2 °F 63% 30.19 in 10.0 mi SSE 3.5 mph - N/A   Clear